Location: Santa Teresa Spring
(37.2333°N, 121.7000°W)
Time: 09:17:04
(UTC-07:00)

ISS - Visible Passes

Search period start: 01 October 2014 00:00
Search period end: 11 October 2014 00:00
Orbit: 413 x 416 km, 51.6° (Epoch: 01 October)

Date Brightness Start Highest point End Pass type
(mag) Time Alt. Az. Time Alt. Az. Time Alt. Az.
01 Oct -3.3 05:44:12 41° W 05:45:04 59° SW 05:48:19 10° SE visible
02 Oct -1.0 04:58:03 21° ESE 04:58:03 21° ESE 04:59:16 10° SE visible
03 Oct -1.0 05:44:58 14° SSW 05:44:58 14° SSW 05:45:41 10° S visible
04 Oct -1.5 19:55:43 10° S 19:57:27 19° SSE 19:57:27 19° SSE visible
05 Oct -1.0 19:08:24 10° SE 19:09:13 11° SE 19:10:02 10° ESE visible
05 Oct -1.5 20:42:11 10° WSW 20:44:00 30° WSW 20:44:00 30° WSW visible
06 Oct -3.3 19:52:59 10° SW 19:56:16 63° SE 19:57:27 35° ENE visible
07 Oct -2.4 19:04:07 10° SSW 19:07:06 32° SE 19:10:06 10° ENE visible
07 Oct -1.2 20:40:57 10° W 20:43:35 25° NW 20:43:35 25° NW visible
08 Oct -2.2 19:51:14 10° WSW 19:54:25 42° NW 19:56:39 17° NNE visible
09 Oct -3.2 19:01:46 10° SW 19:05:04 79° NW 19:08:24 10° NE visible
09 Oct -0.5 20:40:25 10° NW 20:42:13 14° NNW 20:42:26 14° NNW visible
10 Oct -0.9 19:50:11 10° WNW 19:52:40 19° NNW 19:55:10 10° NNE visible
